Weather History for K08D - November, 2012

Change the Weather History Date:

Monday, November 5, 2012

  Actual Average (KMOT) Record (KMOT)
Temperature  
Mean Temperature 39 °F 34 °F  
Max Temperature 46 °F 43 °F 74 °F (1975)
Min Temperature 32 °F 25 °F -16 °F (1935)
Degree Days  
Heating Degree Days 26 31  
Month to date heating degree days 148  
Since 1 July heating degree days 1108  
Moisture  
Dew Point 35 °F    
Average Humidity 98    
Maximum Humidity 100    
Minimum Humidity 70    
Precipitation  
Precipitation 0.00 in 0.02 in 0.53 in (2008)
Month to date precipitation 0.14  
Year to date precipitation 16.20  
Sea Level Pressure  
Sea Level Pressure 29.96 in    
Wind  
Wind Speed 12 mph (WSW)    
Max Wind Speed 25 mph    
Max Gust Speed 41 mph    
Visibility 8 miles    
Events Fog , Rain    
T = Trace of Precipitation, MM = Missing Value Source: NWS Daily Summary

Daily Weather History Graph

Daily Weather History Graph

Search for Another Location

Airport or City:

Trip Planner

Search our weather history database for the weather conditions in past years. The results will help you decide how hot, cold, wet, or windy it might be!

Date:

Astronomy

Nov. 05, 2012 Rise Set
Actual Time 7:42 AM CST 5:23 PM CST
Civil Twilight 7:09 AM CST 5:56 PM CST
Nautical Twilight 6:31 AM CST 6:33 PM CST
Astronomical Twilight 5:55 AM CST 7:10 PM CST
Moon 11:04 PM CST (11/5) 1:03 PM CST (11/5)
Length of Visible Light 10h 47m
Length of Day
9h 41m
Waning Gibbous, 62% of the Moon is Illuminated
Nov 5
Waning Gibbous
Nov 6
Last Quarter
Nov 13
New
Nov 20
First Quarter
Nov 28
Full

Hourly Weather History & Observations

Time (CST) Temp. Windchill Dew Point Humidity Pressure Visibility Wind Dir Wind Speed Gust Speed Precip Events Conditions
12:15 AM 32.0 °F 24.8 °F 32.0 °F 100% 30.20 in 2.5 mi NW 8.1 mph - N/A   Overcast
12:35 AM 32.0 °F 23.6 °F 32.0 °F 100% 30.20 in 4.0 mi WNW 10.4 mph - N/A   Overcast
12:55 AM 32.0 °F 23.6 °F 32.0 °F 100% 30.20 in 4.0 mi WNW 10.4 mph - N/A   Overcast
1:15 AM 32.0 °F 24.8 °F 32.0 °F 100% 30.20 in 3.0 mi WNW 8.1 mph - N/A   Overcast
1:35 AM 32.0 °F 24.2 °F 32.0 °F 100% 30.19 in 10.0 mi NW 9.2 mph - N/A   Overcast
1:55 AM 32.0 °F 24.8 °F 32.0 °F 100% 30.19 in 10.0 mi WNW 8.1 mph - N/A   Overcast
2:15 AM 32.0 °F 24.8 °F 32.0 °F 100% 30.19 in 5.0 mi WNW 8.1 mph - N/A   Overcast
2:35 AM 32.0 °F 25.6 °F 32.0 °F 100% 30.19 in 5.0 mi West 6.9 mph - N/A   Overcast
2:55 AM 32.0 °F 25.6 °F 32.0 °F 100% 30.18 in 10.0 mi West 6.9 mph - N/A   Overcast
3:15 AM 32.0 °F 27.5 °F 32.0 °F 100% 30.16 in 10.0 mi WNW 4.6 mph - N/A   Overcast
3:35 AM 32.0 °F 27.5 °F 32.0 °F 100% 30.14 in 10.0 mi NW 4.6 mph - N/A   Overcast
3:55 AM 32.0 °F 24.8 °F 32.0 °F 100% 30.16 in 10.0 mi West 8.1 mph - N/A   Overcast
4:15 AM 32.0 °F 27.5 °F 32.0 °F 100% 30.15 in 10.0 mi West 4.6 mph - N/A   Overcast
4:35 AM 32.0 °F 25.6 °F 32.0 °F 100% 30.14 in 10.0 mi West 6.9 mph - N/A   Overcast
4:55 AM 32.0 °F 25.6 °F 32.0 °F 100% 30.13 in 10.0 mi WSW 6.9 mph - N/A   Overcast
5:15 AM 32.0 °F 23.6 °F 32.0 °F 100% 30.13 in 10.0 mi SW 10.4 mph - N/A   Overcast
5:35 AM 32.0 °F 24.8 °F 32.0 °F 100% 30.13 in 1.8 mi SW 8.1 mph - N/A   Overcast
5:55 AM 32.0 °F 23.0 °F 32.0 °F 100% 30.11 in 0.8 mi WSW 11.5 mph - N/A   Overcast
6:15 AM 32.0 °F 23.0 °F 32.0 °F 100% 30.11 in 5.0 mi SSW 11.5 mph 17.3 mph N/A   Overcast
6:35 AM 32.0 °F 22.5 °F 32.0 °F 100% 30.09 in 10.0 mi SSW 12.7 mph 17.3 mph N/A   Overcast
6:55 AM 32.0 °F 23.6 °F 32.0 °F 100% 30.09 in 9.0 mi SSW 10.4 mph - N/A   Overcast
7:15 AM 32.0 °F 24.8 °F 32.0 °F 100% 30.07 in 6.0 mi SSW 8.1 mph - N/A   Overcast
7:35 AM 32.0 °F 23.0 °F 32.0 °F 100% 30.06 in 9.0 mi SSW 11.5 mph - N/A   Overcast
7:55 AM 32.0 °F 23.0 °F 32.0 °F 100% 30.05 in 0.5 mi South 11.5 mph - N/A Fog Light Freezing Fog
8:15 AM 32.0 °F 22.1 °F 32.0 °F 100% 30.04 in 0.2 mi South 13.8 mph - N/A Fog Light Freezing Fog
8:35 AM 32.0 °F 21.2 °F 32.0 °F 100% 30.04 in 0.5 mi South 16.1 mph 19.6 mph N/A Fog Light Freezing Fog
8:55 AM 32.0 °F 21.2 °F 32.0 °F 100% 30.03 in 1.2 mi South 16.1 mph 20.7 mph N/A   Overcast
9:15 AM 32.0 °F 21.6 °F 32.0 °F 100% 30.01 in 0.5 mi South 15.0 mph 23.0 mph N/A Fog Fog
9:35 AM 32.0 °F 22.1 °F 32.0 °F 100% 29.99 in 0.2 mi South 13.8 mph - N/A Fog Fog
9:55 AM 32.0 °F 22.5 °F 32.0 °F 100% 29.99 in 0.2 mi South 12.7 mph - N/A Fog Fog
10:15 AM 32.0 °F 21.6 °F 32.0 °F 100% 29.97 in 2.5 mi South 15.0 mph - N/A   Overcast
10:35 AM 32.0 °F 21.2 °F 32.0 °F 100% 29.95 in 0.5 mi South 16.1 mph - N/A Rain Light Rain
10:55 AM 32.0 °F 22.5 °F 32.0 °F 100% 29.95 in 10.0 mi South 12.7 mph - N/A   Overcast
11:15 AM 33.8 °F 24.3 °F 33.8 °F 100% 29.92 in 10.0 mi South 13.8 mph - N/A   Overcast
11:35 AM 33.8 °F 24.3 °F 33.8 °F 100% 29.91 in 10.0 mi South 13.8 mph - N/A   Overcast
11:55 AM 35.6 °F 27.1 °F 35.6 °F 100% 29.89 in 10.0 mi South 12.7 mph - N/A   Overcast
12:15 PM 35.6 °F 27.1 °F 35.6 °F 100% 29.88 in 10.0 mi South 12.7 mph 17.3 mph N/A   Overcast
12:35 PM 35.6 °F 27.5 °F 35.6 °F 100% 29.86 in 10.0 mi South 11.5 mph - N/A Rain Light Rain
12:55 PM 37.4 °F 28.5 °F 37.4 °F 100% 29.83 in 10.0 mi South 15.0 mph - N/A Rain Light Rain
1:15 PM 37.4 °F 29.8 °F 37.4 °F 100% 29.80 in 10.0 mi South 11.5 mph - N/A Rain Light Rain
1:35 PM 39.2 °F 31.2 °F 39.2 °F 100% 29.78 in 10.0 mi SSW 13.8 mph 21.9 mph N/A   Overcast
1:55 PM 39.2 °F 31.6 °F 39.2 °F 100% 29.77 in 10.0 mi South 12.7 mph 20.7 mph N/A   Overcast
2:15 PM 39.2 °F 31.2 °F 39.2 °F 100% 29.76 in 10.0 mi SSW 13.8 mph 18.4 mph N/A   Overcast
2:35 PM 41.0 °F 32.5 °F 41.0 °F 100% 29.75 in 10.0 mi South 17.3 mph - N/A Rain Light Rain
2:55 PM 41.0 °F 34.7 °F 41.0 °F 100% 29.74 in 10.0 mi SSW 10.4 mph - N/A   Mostly Cloudy
3:15 PM 41.0 °F 33.5 °F 41.0 °F 100% 29.74 in 10.0 mi SSW 13.8 mph - N/A   Mostly Cloudy
3:55 PM 41.0 °F 34.3 °F 41.0 °F 100% 29.74 in 10.0 mi SSW 11.5 mph - N/A   Partly Cloudy
4:15 PM 42.8 °F 36.6 °F 42.8 °F 100% 29.72 in 10.0 mi SW 11.5 mph - N/A   Scattered Clouds
4:35 PM 44.6 °F 38.4 °F 44.6 °F 100% 29.73 in 10.0 mi WSW 12.7 mph - N/A   Mostly Cloudy
4:55 PM 44.6 °F 38.1 °F 44.6 °F 100% 29.73 in 10.0 mi West 13.8 mph - N/A   Mostly Cloudy
5:15 PM 46.4 °F 39.8 °F 46.4 °F 100% 29.75 in 10.0 mi WNW 16.1 mph 23.0 mph N/A   Partly Cloudy
5:35 PM 44.6 °F 35.5 °F 44.6 °F 100% 29.77 in 10.0 mi NW 25.3 mph 41.4 mph N/A   Partly Cloudy
5:55 PM 42.8 °F 33.1 °F 42.8 °F 100% 29.78 in 10.0 mi NW 25.3 mph 36.8 mph N/A   Mostly Cloudy
6:15 PM 41.0 °F 30.9 °F 41.0 °F 100% 29.80 in 10.0 mi NW 24.2 mph 38.0 mph N/A   Mostly Cloudy
6:35 PM 39.2 °F 28.3 °F 39.2 °F 100% 29.82 in 10.0 mi NW 25.3 mph 36.8 mph N/A   Mostly Cloudy
6:55 PM 39.2 °F 29.8 °F 39.2 °F 100% 29.82 in 10.0 mi NW 18.4 mph 32.2 mph N/A   Partly Cloudy
7:15 PM 39.2 °F 28.7 °F 39.2 °F 100% 29.83 in 10.0 mi NW 23.0 mph 29.9 mph N/A   Mostly Cloudy
7:35 PM 37.4 °F 26.6 °F 37.4 °F 100% 29.85 in 10.0 mi NW 21.9 mph 28.8 mph N/A   Mostly Cloudy
7:55 PM 37.4 °F 28.9 °F 37.4 °F 100% 29.86 in 10.0 mi NW 13.8 mph 24.2 mph N/A   Mostly Cloudy
8:15 PM 37.4 °F 30.3 °F 37.4 °F 100% 29.85 in 10.0 mi WNW 10.4 mph 16.1 mph N/A   Overcast
8:35 PM 37.4 °F 29.8 °F 37.4 °F 100% 29.87 in 10.0 mi West 11.5 mph 18.4 mph N/A   Partly Cloudy
8:55 PM 35.6 °F 26.2 °F 35.6 °F 100% 29.87 in 10.0 mi West 15.0 mph 18.4 mph N/A   Clear
9:15 PM 35.6 °F 25.2 °F 35.6 °F 100% 29.88 in 10.0 mi West 18.4 mph - N/A   Clear
9:35 PM 35.6 °F 25.9 °F 35.6 °F 100% 29.89 in 10.0 mi West 16.1 mph - N/A   Mostly Cloudy
9:55 PM 37.4 °F 28.5 °F 35.6 °F 93% 29.89 in 10.0 mi WNW 15.0 mph - N/A   Overcast
10:15 PM 37.4 °F 27.5 °F 33.8 °F 87% 29.89 in 10.0 mi WNW 18.4 mph 26.5 mph N/A   Scattered Clouds
10:35 PM 39.2 °F 29.3 °F 32.0 °F 75% 29.90 in 10.0 mi NW 20.7 mph 28.8 mph N/A   Clear
10:55 PM 37.4 °F 28.2 °F 32.0 °F 81% 29.90 in 10.0 mi NW 16.1 mph 27.6 mph N/A   Clear
11:15 PM 37.4 °F 27.8 °F 30.2 °F 75% 29.90 in 10.0 mi NW 17.3 mph 28.8 mph N/A   Clear
11:35 PM 37.4 °F 27.5 °F 28.4 °F 70% 29.90 in 10.0 mi NW 18.4 mph 31.1 mph N/A   Clear
11:55 PM 37.4 °F 27.8 °F 28.4 °F 70% 29.90 in 10.0 mi NW 17.3 mph 25.3 mph N/A   Clear